[[{"header":{"parameterUnit":"m.s-1","parameterCategory":1,"la1":30.2991,"la2":30.254,"lo1":-89.0895,"lo2":-89.0444,"dy":0.0017,"dx":0.0017,"nx":28,"ny":28,"refTime":"2025-12-14T03:00:00:Z","depth":0,"parameterNumber":2,"parameterNumberName":"U-component_of_WINDS"},"data":[0,0,0,0,0,0,0,0,0,0,0,0,0,0,0,0,0,0,0,0,0,0,0,0,0,0,0,0,0,0,0,0,0,0,0,0,0,0,0,0,0,0,0,0,0,0,0,0,0,0,0,0,0,0,0,0,0,0,-0.2413,-0.2412,0,-0.2371,-0.237,-0.237,-0.2348,-0.2348,-0.2348,-0.2348,-0.2303,-0.2302,-0.2301,0,0,0,0,0,0,0,0,0,0,0,0,0,-0.2473,-0.2472,-0.2413,-0.2412,-0.2412,-0.2371,-0.237,-0.237,-0.2348,-0.2348,-0.2348,-0.2348,-0.2303,-0.2302,-0.2301,0,0,0,0,0,0,0,0,0,0,0,0,0,-0.2441,-0.2472,-0.2413,-0.2396,-0.2394,-0.2371,-0.237,-0.2369,-0.2348,-0.2348,-0.2348,-0.2348,-0.2304,-0.2302,-0.23,-0.229,0,0,-0.2295,-0.2294,0,0,0,0,0,0,0,0,-0.2442,-0.2438,-0.2399,-0.2397,-0.2395,-0.2364,-0.2375,-0.2343,-0.2348,-0.2365,-0.2348,-0.2348,-0.2323,-0.232,-0.2312,-0.2288,-0.2286,-0.2295,-0.2294,-0.2293,-0.2293,0,0,0,0,0,0,0,-0.2445,-0.244,-0.2396,-0.2399,-0.2396,-0.239,-0.2385,-0.2369,-0.2345,-0.2364,-0.2362,-0.2357,-0.2322,-0.2314,-0.2311,-0.2286,-0.2295,-0.2293,-0.2292,-0.2292,-0.2251,-0.2251,0,0,0,0,0,0,-0.245,-0.2442,-0.2397,-0.2395,-0.2419,-0.2389,-0.2384,-0.2374,-0.2345,-0.2341,-0.2358,-0.2357,-0.2317,-0.2313,-0.2309,-0.2295,-0.2293,-0.2291,-0.229,-0.2251,-0.2251,-0.2251,0,0,0,0,0,0,-0.2451,-0.2446,-0.2399,-0.2418,-0.2412,-0.2388,-0.2377,-0.2373,-0.2365,-0.234,-0.2336,-0.2353,-0.2317,-0.2312,-0.2295,-0.2293,-0.2291,-0.2289,-0.2251,-0.2251,-0.2251,-0.2267,0,0,0,0,0,0,-0.2453,-0.2447,-0.2443,-0.2418,-0.2411,-0.2386,-0.2377,-0.2373,-0.2362,-0.2361,-0.2335,-0.2331,-0.2316,-0.2298,-0.2293,-0.2291,-0.2288,-0.2251,-0.2251,-0.2251,-0.2267,-0.2268,-0.2268,0,0,0,0,0,-0.2455,-0.2449,-0.2443,-0.2438,-0.2406,-0.2386,-0.2382,-0.2365,-0.2362,-0.2358,-0.2342,-0.2332,-0.2294,-0.2296,-0.2291,-0.2288,-0.2251,-0.2251,-0.2251,-0.2266,-0.2267,-0.2268,0,0,0,0,0,0,-0.2474,-0.2446,-0.2438,-0.2424,-0.2408,-0.2383,-0.2377,-0.2367,-0.2351,-0.235,-0.233,-0.2324,-0.2309,-0.2297,-0.23,-0.2276,-0.2271,-0.227,-0.2285,-0.2286,-0.2287,-0.229,-0.2286,0,0,0,0,0,-0.2476,-0.2464,-0.2439,-0.2429,-0.2421,-0.24,-0.2391,-0.238,-0.2362,-0.2355,-0.2338,-0.2321,-0.2305,-0.2295,-0.2279,-0.2265,-0.2259,-0.226,-0.2261,-0.2262,-0.2261,-0.2252,-0.2252,-0.225,-0.225,-0.225,0,0,-0.2481,-0.2464,-0.2457,-0.2432,-0.2418,-0.2405,-0.2395,-0.2381,-0.2371,-0.2353,-0.2336,-0.2323,-0.2302,-0.2287,-0.2279,-0.2276,-0.226,-0.2262,-0.2263,-0.2261,-0.2252,-0.2252,-0.2253,-0.225,-0.225,-0.225,0,0,-0.2483,-0.2469,-0.2459,-0.2445,-0.2425,-0.2411,-0.2408,-0.2385,-0.2375,-0.2358,-0.2345,-0.2332,-0.2305,-0.2291,-0.228,-0.2277,-0.2267,-0.2272,-0.2277,-0.2269,-0.2269,-0.2269,-0.2267,-0.2267,-0.2271,-0.2271,-0.2272,0,-0.2492,-0.2472,-0.2455,-0.2442,-0.2431,-0.2415,-0.2404,-0.2391,-0.2366,-0.2359,-0.2356,-0.2322,-0.2307,-0.2288,-0.2287,-0.2279,-0.2275,-0.2275,-0.227,-0.227,-0.227,-0.2268,-0.2268,-0.2272,-0.2272,-0.2272,-0.2272,0,-0.2483,-0.2469,-0.2463,-0.244,-0.2428,-0.2416,-0.2397,-0.2388,-0.2377,-0.2364,-0.2347,-0.2328,-0.2308,-0.2303,-0.2292,-0.2282,-0.2281,-0.2274,-0.2269,-0.2271,-0.2269,-0.2268,-0.2273,-0.2273,-0.2273,-0.2273,0,0,-0.2495,-0.2463,-0.2461,-0.245,-0.2426,-0.2414,-0.2402,-0.2383,-0.2374,-0.2358,-0.2346,-0.2324,-0.2318,-0.2306,-0.2294,-0.2287,-0.2285,-0.2281,-0.228,-0.2282,-0.2272,-0.2276,-0.2276,-0.2278,-0.2278,-0.2278,-0.2273,0,-0.2493,-0.247,-0.2454,-0.2437,-0.2424,-0.2408,-0.2397,-0.2381,-0.2368,-0.2354,-0.234,-0.2324,-0.2318,-0.231,-0.2303,-0.2287,-0.2282,-0.2287,-0.2266,-0.2266,-0.2272,-0.2275,-0.228,-0.2276,-0.2272,-0.2272,-0.2272,0,-0.2488,-0.2472,-0.2454,-0.2431,-0.2425,-0.2415,-0.2396,-0.2384,-0.2365,-0.2356,-0.2342,-0.233,-0.2315,-0.2312,-0.2291,-0.2294,-0.2285,-0.2276,-0.2276,-0.2273,-0.2269,-0.2272,-0.2275,-0.2274,-0.2271,-0.2271,-0.2271,0,-0.2498,-0.2472,-0.2458,-0.2449,-0.2422,-0.2416,-0.2404,-0.2385,-0.2375,-0.2358,-0.2351,-0.2333,-0.2323,-0.2309,-0.2292,-0.229,-0.2272,-0.2267,-0.2264,-0.2265,-0.2261,-0.2261,-0.2262,-0.2256,-0.2256,-0.2256,-0.2256,0,-0.2497,-0.2487,-0.2462,-0.2453,-0.244,-0.2422,-0.241,-0.2397,-0.2381,-0.2369,-0.2354,-0.2343,-0.2321,-0.2307,-0.2294,-0.2279,-0.2274,-0.2266,-0.2263,-0.2267,-0.2268,-0.2261,-0.226,-0.2255,-0.2255,-0.2255,-0.2255,0,-0.2507,-0.249,-0.2473,-0.2449,-0.2443,-0.2434,-0.2414,-0.2404,-0.2391,-0.2375,-0.2371,-0.2349,-0.2332,-0.2314,-0.2291,-0.2281,-0.2267,-0.2262,-0.2273,-0.2271,-0.2269,-0.2269,-0.2265,-0.2263,-0.2258,-0.2258,-0.2258,0,-0.2507,-0.2498,-0.2474,-0.2465,-0.2454,-0.244,-0.2429,-0.2411,-0.24,-0.2378,-0.2371,-0.2353,-0.2338,-0.2311,-0.2293,-0.2275,-0.2269,-0.2269,-0.2266,-0.2271,-0.2269,-0.2269,-0.2268,-0.227,-0.227,-0.227,-0.227,0,-0.251,-0.2502,-0.2487,-0.2469,-0.2457,-0.2442,-0.2427,-0.242,-0.2399,-0.2388,-0.237,-0.2358,-0.2335,-0.2317,-0.2297,-0.2284,-0.2273,-0.2271,-0.2269,-0.2274,-0.228,-0.2276,-0.2275,-0.2271,-0.2271,-0.2271,-0.2271,-0.2271,-0.2514,-0.2505,-0.2487,-0.2471,-0.2458,-0.2443,-0.2433,-0.2419,-0.2404,-0.2384,-0.2374,-0.2356,-0.2337,-0.2309,-0.2297,-0.2283,-0.228,-0.2277,-0.2276,-0.2276,-0.2277,-0.2283,-0.2279,-0.2279,-0.2279,-0.2279,-0.2279,0,-0.2515,-0.2503,-0.2488,-0.2467,-0.2455,-0.2446,-0.2429,-0.2419,-0.2404,-0.2387,-0.2372,-0.2352,-0.2335,-0.2316,-0.2297,-0.2289,-0.2284,-0.2285,-0.2285,-0.2282,-0.2281,-0.2284,-0.2289,-0.2289,-0.2289,-0.2289,-0.2289,-0.2289,-0.2515,-0.25,-0.249,-0.2468,-0.2455,-0.2438,-0.2429,-0.2416,-0.2402,-0.2381,-0.2366,-0.2354,-0.2336,-0.2316,-0.23,-0.2294,-0.2288,-0.229,-0.2284,-0.2283,-0.2282,-0.2281,-0.2284,-0.2289,-0.2289,-0.2286,-0.2286,-0.2286]},{"header":{"parameterUnit":"m.s-1","parameterCategory":1,"la1":30.2991,"la2":30.254,"lo1":-89.0895,"lo2":-89.0444,"dy":0.0017,"dx":0.0017,"nx":28,"ny":28,"refTime":"2025-12-14T03:00:00:Z","depth":0,"parameterNumber":3,"parameterNumberName":"V-component_of_WINDS"},"data":[0,0,0,0,0,0,0,0,0,0,0,0,0,0,0,0,0,0,0,0,0,0,0,0,0,0,0,0,0,0,0,0,0,0,0,0,0,0,0,0,0,0,0,0,0,0,0,0,0,0,0,0,0,0,0,0,0,0,1.0707,1.0708,0,1.0829,1.083,1.0832,1.0885,1.0885,1.0885,1.0884,1.1011,1.1014,1.1018,0,0,0,0,0,0,0,0,0,0,0,0,0,1.0523,1.0526,1.0707,1.0708,1.071,1.0829,1.0831,1.0832,1.0885,1.0885,1.0885,1.0884,1.101,1.1014,1.1018,0,0,0,0,0,0,0,0,0,0,0,0,0,1.062,1.0527,1.0707,1.0751,1.0756,1.0829,1.0831,1.0833,1.0885,1.0885,1.0885,1.0884,1.1008,1.1014,1.1019,1.1057,0,0,1.1035,1.1037,0,0,0,0,0,0,0,0,1.0614,1.0627,1.0743,1.0748,1.0754,1.0842,1.0812,1.0908,1.0885,1.0836,1.0884,1.0884,1.0955,1.0965,1.0988,1.1063,1.1069,1.1036,1.1039,1.1041,1.1043,0,0,0,0,0,0,0,1.0607,1.0622,1.0755,1.0744,1.0751,1.0766,1.0779,1.0831,1.0896,1.084,1.0844,1.0858,1.0958,1.0983,1.0992,1.1071,1.1035,1.104,1.1043,1.1046,1.1187,1.1187,0,0,0,0,0,0,1.0593,1.0616,1.0751,1.0759,1.0682,1.0769,1.0784,1.0814,1.0895,1.0907,1.0858,1.086,1.0974,1.0985,1.0996,1.1048,1.1041,1.1046,1.1049,1.1186,1.1187,1.1187,0,0,0,0,0,0,1.0589,1.0605,1.0747,1.0689,1.0708,1.0772,1.0805,1.0816,1.0841,1.0909,1.0921,1.0872,1.0974,1.0989,1.1042,1.1053,1.1048,1.1053,1.1185,1.1186,1.1187,1.1152,0,0,0,0,0,0,1.0583,1.0603,1.0617,1.0688,1.0711,1.0789,1.0806,1.0819,1.085,1.0854,1.0925,1.0936,1.0975,1.1034,1.1048,1.1061,1.1057,1.1185,1.1186,1.1187,1.1152,1.1151,1.115,0,0,0,0,0,1.0577,1.0602,1.0618,1.0634,1.073,1.079,1.0803,1.0847,1.0851,1.0867,1.091,1.0934,1.105,1.1039,1.1055,1.107,1.1184,1.1185,1.1187,1.1153,1.1151,1.115,0,0,0,0,0,0,1.0531,1.0612,1.063,1.0679,1.0727,1.0799,1.082,1.0844,1.0892,1.0893,1.0946,1.0962,1.1011,1.1046,1.1032,1.1113,1.1119,1.1124,1.1088,1.1088,1.1087,1.1077,1.1062,0,0,0,0,0,1.0526,1.0567,1.0637,1.0674,1.0697,1.0754,1.0782,1.0812,1.0864,1.0884,1.0932,1.0982,1.1031,1.1061,1.1109,1.1158,1.1175,1.1176,1.1175,1.1174,1.1177,1.1208,1.1209,1.1191,1.1191,1.1191,0,0,1.0517,1.0567,1.059,1.0666,1.0706,1.0749,1.0771,1.0814,1.0847,1.0891,1.0945,1.0982,1.1042,1.1093,1.1119,1.1124,1.1186,1.1175,1.1174,1.1178,1.1209,1.1211,1.1212,1.1192,1.1192,1.1192,0,0,1.0524,1.0565,1.0601,1.0641,1.0703,1.0741,1.075,1.0818,1.0844,1.0899,1.0934,1.0974,1.1055,1.1097,1.1129,1.1153,1.1177,1.1167,1.1163,1.1192,1.1193,1.1195,1.1205,1.1208,1.117,1.117,1.117,0,1.0505,1.057,1.0616,1.0659,1.0692,1.0734,1.0772,1.0809,1.0883,1.0906,1.0911,1.1015,1.1058,1.1121,1.1127,1.1151,1.1164,1.1159,1.1189,1.1191,1.1193,1.1204,1.1207,1.1169,1.1169,1.1169,1.1169,0,1.0545,1.0589,1.0611,1.0682,1.0718,1.0757,1.0811,1.0842,1.087,1.0908,1.0965,1.1018,1.1078,1.1096,1.1123,1.1164,1.1165,1.1179,1.1187,1.1193,1.1203,1.1208,1.1167,1.1167,1.1168,1.1168,0,0,1.0524,1.0621,1.0628,1.0662,1.0734,1.077,1.0813,1.0872,1.0898,1.0948,1.0986,1.1055,1.1069,1.1105,1.1138,1.1163,1.1181,1.1174,1.1177,1.1175,1.1231,1.1221,1.1224,1.1198,1.1199,1.1199,1.1227,0,1.054,1.0618,1.0662,1.0722,1.0765,1.0807,1.0845,1.0894,1.0931,1.0974,1.1016,1.1064,1.1078,1.1101,1.1128,1.1173,1.1193,1.1172,1.1235,1.1237,1.1219,1.123,1.1218,1.1241,1.1231,1.1232,1.1232,0,1.0569,1.0619,1.0683,1.0752,1.0772,1.0804,1.0863,1.0904,1.0961,1.0987,1.1028,1.1061,1.1109,1.1114,1.1182,1.1167,1.1195,1.1222,1.1224,1.1232,1.1235,1.1238,1.125,1.1253,1.1239,1.1238,1.1238,0,1.0548,1.0632,1.0681,1.0709,1.079,1.0813,1.0848,1.0905,1.0938,1.099,1.1013,1.1069,1.1101,1.1145,1.1193,1.1191,1.1257,1.1265,1.1281,1.128,1.1293,1.1291,1.1309,1.131,1.131,1.131,1.131,0,1.0562,1.06,1.0673,1.0704,1.0748,1.08,1.0843,1.0882,1.0932,1.0972,1.1012,1.1049,1.111,1.1155,1.1193,1.1245,1.1259,1.1282,1.1291,1.1278,1.1276,1.1298,1.1298,1.1311,1.1311,1.1311,1.131,0,1.0546,1.0597,1.0654,1.0727,1.0746,1.0776,1.0839,1.0872,1.0912,1.0962,1.0977,1.104,1.1096,1.1148,1.1221,1.1247,1.13,1.1312,1.128,1.1285,1.1299,1.1297,1.1332,1.134,1.1335,1.1335,1.1335,0,1.0552,1.0582,1.0659,1.0688,1.0723,1.0769,1.0804,1.0857,1.0891,1.096,1.0985,1.1043,1.1092,1.1179,1.1232,1.1289,1.1304,1.1312,1.1312,1.1299,1.1305,1.1303,1.1307,1.1311,1.1311,1.131,1.131,0,1.0557,1.0581,1.0628,1.0686,1.0726,1.0774,1.0823,1.0845,1.0908,1.0945,1.1002,1.104,1.1116,1.1174,1.1238,1.1275,1.1304,1.131,1.1317,1.1304,1.1285,1.1296,1.1278,1.1309,1.1309,1.1309,1.1309,1.1309,1.0553,1.0582,1.0641,1.0694,1.0736,1.0782,1.0816,1.0861,1.091,1.0975,1.1004,1.1062,1.1121,1.121,1.1247,1.1294,1.1301,1.131,1.1313,1.1315,1.1313,1.1277,1.1306,1.1306,1.1306,1.1306,1.1307,0,1.056,1.0601,1.0649,1.0716,1.0758,1.0782,1.0838,1.0872,1.0922,1.0975,1.1023,1.1089,1.1146,1.1205,1.1265,1.1292,1.1307,1.1306,1.1305,1.1314,1.1303,1.1291,1.1293,1.1293,1.1293,1.1293,1.1293,1.1293,1.0569,1.0621,1.0652,1.0726,1.0767,1.0824,1.0854,1.0897,1.094,1.1012,1.106,1.1097,1.1153,1.1219,1.1272,1.1288,1.1309,1.1305,1.1325,1.1313,1.1314,1.1315,1.1304,1.1309,1.1309,1.1332,1.1332,1.1332]}]]